Theta_e
291 292 292 293 293 292 292 293 294 295 299 299 296 298 296 297 295 293 295 296 297 300 302 304 304 303 304 303 303 305 309 315 320 321 323 326 327 328 330 331 333 334 334 335 335 336 337 338 338 339 340 341 342 344 346 348 350 350 351 350 350 350 349 349 349 350 350 351 351 350 350 349 349 349 349 349 349 349 349 349 350 350 352 353 353 352 353
289 290 291 293 291 293 294 294 295 297 299 300 299 298 298 299 297 298 298 297 298 302 303 303 303 303 303 305 311 311 309 314 319 321 323 325 326 327 329 330 332 333 335 335 336 336 337 337 338 339 340 341 341 342 344 347 349 351 352 351 350 350 350 350 350 351 351 351 351 351 350 350 349 349 349 349 349 349 349 349 349 349 349 351 352 352 352
287 290 292 294 293 293 294 298 301 301 300 301 300 298 299 300 300 301 297 298 299 301 303 304 306 307 308 313 312 308 310 315 319 321 323 325 326 327 329 330 332 333 334 335 336 336 336 337 338 339 340 341 342 342 343 345 347 351 352 351 351 351 351 351 352 352 351 351 352 351 351 351 350 350 349 349 349 349 349 349 349 349 349 348 349 351 352
284 289 291 290 292 294 295 297 298 299 300 297 297 297 302 298 298 300 300 297 297 300 305 309 307 307 307 308 308 311 308 315 320 321 322 324 325 326 328 330 331 332 334 334 334 335 336 337 338 339 340 341 341 342 343 344 346 350 351 352 351 351 352 352 353 352 352 352 351 351 351 351 351 350 350 349 349 349 349 348 349 349 348 348 348 349 350
282 288 290 289 292 294 292 294 297 299 306 307 308 309 311 309 308 298 296 297 300 303 309 309 315 323 324 325 322 313 313 313 320 321 322 324 325 326 327 329 331 332 333 333 334 336 337 338 338 340 341 341 341 342 343 344 347 348 350 351 351 352 352 353 353 353 353 352 352 352 351 351 351 351 350 349 349 348 348 349 349 348 348 348 348 348 348
283 287 288 292 294 286 287 298 302 301 303 308 306 305 307 309 311 307 307 309 311 306 307 317 322 325 325 326 327 327 321 314 315 320 322 324 326 326 328 329 330 331 333 334 335 336 337 338 340 341 342 342 343 344 344 345 346 348 349 351 352 352 353 353 353 353 353 353 352 352 353 352 352 351 350 349 349 349 349 349 348 348 348 348 348 348 348
281 287 289 293 288 289 300 303 303 303 304 304 308 308 308 308 309 310 311 308 310 316 320 322 326 328 329 330 330 331 331 327 323 320 321 320 324 325 326 327 329 330 331 332 333 334 336 338 339 340 341 343 344 344 345 345 346 348 349 351 352 352 353 353 354 354 353 353 353 353 353 353 352 351 350 350 349 349 349 348 348 347 348 347 348 348 348
287 287 285 285 289 300 303 302 303 304 304 302 304 307 308 309 309 309 311 314 314 313 318 324 328 328 330 332 332 332 334 335 330 328 327 325 324 323 324 325 325 326 328 331 333 334 338 339 338 339 341 344 345 345 347 346 347 348 350 351 351 353 353 354 354 355 354 353 353 353 353 353 352 351 351 350 350 350 349 349 349 349 348 349 348 348 349
281 285 283 285 295 297 300 297 297 298 296 298 298 300 305 309 309 309 311 316 318 319 319 318 323 327 332 330 331 335 336 337 340 339 337 335 333 333 332 331 332 332 332 333 338 341 338 339 339 339 342 345 346 346 346 347 347 348 349 350 352 353 354 355 355 356 355 355 354 354 353 353 352 352 351 351 351 351 349 349 348 347 347 347 348 348 349
288 282 282 283 287 287 292 297 300 303 304 304 304 301 305 311 310 310 311 316 317 319 322 323 323 322 327 323 326 333 337 338 340 343 343 344 344 343 342 342 340 340 340 341 343 340 340 340 340 341 344 346 346 346 346 347 347 347 348 349 352 354 354 356 356 357 357 356 355 355 354 353 352 353 353 353 352 352 350 349 348 348 348 348 348 348 348
285 283 281 281 281 290 295 296 299 303 305 305 305 304 302 310 310 310 311 317 319 320 321 323 324 323 320 320 326 333 337 337 338 340 343 345 345 347 348 347 347 347 347 347 349 349 347 347 346 341 345 346 346 346 347 347 348 347 347 348 350 352 355 357 358 358 358 357 356 355 355 354 354 353 353 353 353 353 352 351 350 350 349 348 348 348 348
285 284 281 279 289 283 295 299 302 304 307 308 304 297 298 307 310 309 311 313 318 321 323 324 324 324 320 322 328 335 337 337 337 338 340 344 345 346 348 348 349 350 352 352 352 351 351 349 349 341 343 345 347 346 347 347 347 347 348 349 350 351 353 356 358 358 358 358 357 356 355 355 355 354 354 354 353 352 352 352 350 350 349 349 347 347 348
286 287 284 289 291 298 301 301 304 307 309 308 299 292 302 309 311 309 309 309 312 319 321 323 320 324 328 329 333 335 336 337 337 339 341 344 346 346 347 348 352 349 350 350 350 351 352 354 354 353 351 350 350 347 342 341 343 345 346 348 350 351 351 353 355 357 358 358 357 357 357 356 356 355 355 353 353 352 351 352 351 350 349 348 348 348 348
282 283 282 283 288 298 303 304 307 309 306 295 293 306 313 312 311 310 308 307 308 314 320 320 322 323 326 329 330 330 332 334 335 338 340 343 344 347 350 352 349 347 348 348 349 349 350 352 355 356 355 353 351 350 350 349 351 357 353 342 344 348 349 351 353 355 356 358 358 358 358 357 355 354 355 354 353 352 352 351 349 349 349 347 347 347 347
288 289 288 286 282 295 306 305 306 306 300 300 308 311 312 313 310 309 308 308 308 309 311 316 320 321 322 323 324 326 328 330 332 334 337 339 341 342 343 344 348 346 344 344 345 346 348 349 351 352 352 351 350 349 348 348 351 353 354 352 343 344 348 350 352 353 355 356 356 358 358 357 355 354 354 354 353 352 351 350 349 348 348 347 347 346 346
287 286 284 284 294 302 308 305 297 305 306 312 313 311 307 311 309 309 307 308 309 309 309 309 313 318 320 321 322 324 325 327 330 332 335 337 340 341 342 343 343 344 342 342 343 344 345 346 347 348 349 348 350 348 346 350 352 355 353 352 342 341 344 348 351 352 353 355 356 357 358 357 356 355 354 354 353 352 351 350 349 348 347 348 346 345 345
291 288 293 296 301 307 308 310 309 311 312 313 314 312 310 308 308 312 308 308 310 309 309 309 309 310 314 319 322 322 323 325 327 328 331 334 337 339 340 341 342 342 341 340 341 342 343 344 345 345 345 346 347 345 346 351 353 353 354 354 344 340 341 345 349 351 353 354 355 356 357 357 355 354 354 354 352 352 351 350 349 348 348 348 347 346 346
296 300 301 301 300 307 308 310 308 307 309 309 311 311 308 309 309 310 309 309 310 310 310 309 308 308 309 313 318 322 323 324 326 328 329 332 335 338 340 340 340 340 340 340 340 340 341 342 343 345 343 344 343 341 345 351 351 352 355 354 354 349 341 342 345 350 352 353 354 355 356 357 356 356 355 354 353 352 352 351 350 349 349 348 347 347 347
290 288 298 298 297 300 305 306 307 306 307 308 308 307 311 311 310 309 311 310 310 311 310 309 308 308 309 310 313 319 322 323 324 325 326 328 331 334 336 339 340 339 339 339 339 340 339 340 341 342 342 343 343 343 346 347 349 350 353 355 355 354 349 343 342 347 351 352 353 355 355 356 356 356 355 354 353 352 353 352 351 351 350 349 348 348 348
291 292 296 296 297 299 306 305 304 303 304 305 305 307 307 311 313 310 309 312 311 312 310 309 308 307 308 309 310 314 319 323 323 323 325 326 328 331 334 337 339 336 338 337 338 338 337 337 339 339 340 341 342 344 345 346 347 350 354 355 354 352 352 347 345 347 350 359 357 354 355 356 356 355 355 355 354 353 353 353 352 352 352 351 349 350 349
292 295 297 295 296 299 304 304 306 306 304 305 305 305 305 307 310 310 311 311 311 313 311 311 309 307 306 308 309 310 315 321 323 322 324 326 327 329 331 334 337 335 334 337 336 337 336 335 337 337 337 338 340 341 342 343 344 347 350 354 352 349 348 347 346 348 351 355 355 352 335 319 312 311 319 339 352 353 342 343 356 356 354 353 353 354 353
287 289 291 294 288 289 295 299 301 303 304 304 304 305 304 304 307 309 311 311 312 315 313 312 310 307 307 307 308 308 310 317 321 322 323 325 326 328 331 333 333 334 336 334 335 335 333 334 336 336 336 336 337 339 340 340 342 343 346 348 348 348 347 346 347 349 353 354 351 343 335 328 321 316 308 299 302 323 332 319 313 312 325 354 356 355 354
286 292 294 295 295 295 296 298 300 301 303 303 302 302 304 305 306 310 311 311 308 310 312 313 311 309 308 307 308 308 309 312 320 323 324 324 325 327 330 331 333 333 332 336 333 332 330 333 334 334 334 334 335 337 337 338 340 341 342 345 346 347 347 346 345 353 349 346 341 336 334 332 330 326 323 317 300 297 303 306 303 308 311 309 313 331 348
294 296 296 297 295 294 296 299 300 301 303 303 301 304 306 305 308 310 310 312 310 308 310 312 313 311 308 307 308 308 309 311 317 324 325 325 324 328 330 331 332 333 331 331 330 331 330 332 331 332 333 333 332 335 336 338 339 338 340 341 342 344 345 346 344 344 343 341 337 335 332 332 332 332 330 327 323 305 298 299 300 295 295 302 311 319 323
293 297 298 298 297 297 299 300 301 302 303 305 302 303 305 306 312 313 310 311 311 311 310 310 311 312 309 308 308 308 308 310 318 327 330 329 328 329 329 331 332 332 330 329 329 329 330 332 333 333 332 332 332 333 334 337 339 339 338 340 340 342 346 347 346 345 340 338 336 335 334 333 333 334 334 333 328 322 315 302 299 297 298 297 297 300 303
299 298 299 300 300 300 301 301 301 302 302 303 302 304 306 310 311 313 313 311 310 313 313 312 311 312 311 308 309 309 309 312 322 329 321 322 324 326 327 328 331 334 329 328 330 330 331 332 331 331 332 333 332 333 335 336 336 336 336 339 339 339 343 346 344 341 339 338 336 335 335 336 337 337 337 335 330 326 324 324 322 313 305 300 298 299 296
300 300 299 298 298 300 302 300 300 303 303 303 303 302 304 308 313 312 311 311 312 313 313 311 312 313 312 310 311 311 311 316 321 322 322 322 324 325 327 329 331 332 332 330 329 336 341 336 332 330 329 331 332 333 334 334 334 335 336 338 339 345 351 351 339 342 340 339 338 336 336 336 336 336 333 331 329 330 330 328 324 321 320 317 306 300 305
299 300 299 295 295 297 300 303 305 304 304 303 302 303 305 308 307 307 307 309 310 309 310 312 311 310 310 310 308 307 309 313 318 321 323 323 324 326 327 328 330 331 331 331 329 332 334 330 330 329 327 330 331 332 334 333 332 333 335 336 339 338 338 341 340 344 341 338 336 336 336 336 335 333 331 331 331 329 325 325 323 321 319 316 312 306 300
298 299 300 300 300 301 304 306 306 305 303 302 303 303 303 303 303 302 305 305 308 309 308 309 312 312 310 309 309 308 309 312 318 322 323 323 324 325 327 329 330 330 329 330 329 329 329 329 328 327 328 329 331 332 333 332 332 334 334 335 335 336 338 339 340 342 340 337 333 332 331 329 331 331 330 329 329 328 326 325 324 322 319 318 320 320 316
298 299 299 299 300 301 301 302 303 303 303 302 301 301 301 301 301 301 302 303 305 306 309 310 308 309 310 310 310 309 309 314 321 321 320 320 320 322 324 326 328 327 326 326 325 327 328 327 328 328 328 329 332 332 332 331 331 333 333 333 333 332 336 338 340 341 337 333 330 329 330 330 329 329 329 329 329 328 327 325 325 324 324 324 324 323 320
298 299 299 299 299 300 300 302 303 302 302 301 301 300 301 301 301 301 301 302 304 305 305 307 308 308 309 310 310 310 315 317 316 316 316 316 316 318 321 323 324 322 321 321 322 324 324 325 325 324 326 328 330 331 331 330 330 331 333 332 332 328 330 334 336 337 334 332 331 330 330 329 329 330 329 329 329 329 328 328 328 327 327 326 326 324 323
297 297 297 297 298 298 299 301 302 301 300 300 299 299 299 300 300 300 302 303 303 304 304 305 306 308 309 310 311 315 315 312 311 312 312 313 314 316 319 320 321 322 319 321 322 324 324 323 323 325 327 329 330 330 332 331 330 329 330 337 331 331 331 331 333 332 334 335 332 330 330 329 329 330 330 330 329 329 329 328 328 327 327 326 325 325 325
295 294 294 295 297 297 298 300 302 302 300 299 299 300 301 301 302 303 303 304 305 306 305 305 307 308 310 313 316 315 313 311 310 311 310 311 313 316 318 320 319 318 317 318 320 321 322 322 323 325 326 327 329 330 332 331 330 329 328 329 330 333 337 330 331 332 334 332 331 331 331 331 331 331 330 330 330 330 330 329 328 328 327 327 326 326 324
296 295 296 297 297 296 297 298 301 303 304 302 301 301 301 302 302 303 303 306 305 305 305 306 307 309 315 316 315 314 312 310 310 310 308 309 312 315 316 318 318 317 316 316 316 317 319 320 322 323 325 325 327 329 328 329 328 327 326 326 327 327 329 329 331 332 331 331 331 333 333 332 332 331 330 330 329 329 329 328 328 327 326 324 321 315 307
299 299 300 299 299 300 301 300 301 302 305 305 304 303 303 302 302 302 305 305 304 305 306 307 311 316 314 312 311 310 309 308 306 306 307 310 312 314 316 316 315 315 314 314 314 315 317 319 321 322 322 322 323 323 326 326 326 325 325 325 326 325 326 329 328 329 330 331 332 332 331 330 329 332 331 328 327 328 327 327 326 326 323 321 319 318 314
299 298 298 299 299 300 300 301 302 303 305 307 307 305 304 303 303 302 305 307 306 307 311 314 313 312 311 309 308 308 308 307 307 306 307 310 312 313 313 313 313 313 312 312 313 315 316 318 323 324 320 320 319 318 321 325 323 323 323 323 323 323 323 323 324 324 325 326 327 327 328 329 329 328 328 326 326 326 325 323 323 324 322 322 322 322 321
300 298 298 299 299 299 299 300 302 303 304 306 309 311 311 308 305 304 305 304 307 311 312 310 309 307 307 307 307 308 308 307 307 307 307 309 311 311 311 311 311 311 311 309 311 315 317 318 320 319 316 316 316 317 320 323 322 320 320 320 320 320 320 320 320 320 320 321 322 322 323 322 320 321 323 321 320 320 320 320 322 321 321 322 322 320 320
299 299 299 299 299 299 299 300 302 302 303 304 306 309 312 310 309 309 309 309 309 308 309 308 308 307 308 308 307 307 307 307 307 307 307 308 309 308 308 309 309 310 308 308 312 314 315 317 319 316 313 313 313 315 318 320 321 316 317 318 318 318 318 318 317 317 316 316 318 316 316 315 315 314 315 315 316 316 316 316 316 315 315 316 316 316 315
299 299 299 299 299 299 299 299 301 301 302 302 303 305 308 310 310 309 308 309 309 309 308 307 306 306 306 306 306 307 307 307 308 307 307 307 308 306 306 307 309 310 311 312 311 311 314 314 313 312 313 312 312 312 317 318 319 314 314 315 315 316 316 316 316 316 316 316 315 314 314 314 314 313 313 313 313 314 314 313 312 312 311 311 310 309 309
300 298 298 299 298 299 299 299 299 300 301 302 302 302 305 307 307 307 307 307 308 309 307 306 306 305 305 305 305 305 306 307 307 306 306 306 306 305 305 306 308 309 312 314 311 312 314 314 311 309 310 311 311 311 314 315 315 314 312 312 312 312 312 313 313 312 312 313 313 314 312 312 311 311 310 310 309 309 309 309 308 308 307 307 306 306 307
300 299 298 298 298 299 298 298 298 299 300 301 301 302 303 304 305 305 305 305 306 307 307 307 306 305 305 305 305 306 306 308 307 306 306 306 305 304 304 303 307 309 310 311 311 312 313 312 310 307 308 310 310 313 311 313 310 309 310 311 311 310 310 309 308 308 308 308 309 308 308 308 308 307 308 307 307 306 306 305 305 305 304 304 304 305 305
301 300 299 298 298 299 299 299 299 299 299 300 302 302 302 303 303 303 304 305 306 306 307 307 308 306 305 305 306 306 305 306 306 306 306 306 304 304 303 304 308 309 312 312 311 310 309 309 310 311 307 308 310 313 312 310 307 307 307 308 308 309 308 308 307 307 307 307 306 305 306 306 305 304 305 304 304 304 303 303 302 302 302 303 303 303 303
302 301 299 298 298 299 299 299 299 299 299 300 301 301 301 302 302 303 303 303 303 303 303 304 306 307 306 305 304 304 304 305 305 305 305 306 307 307 305 306 308 309 311 311 308 307 307 306 307 308 310 310 308 310 310 306 305 305 305 306 307 306 306 306 305 305 305 304 304 304 303 303 302 302 302 301 301 301 301 301 300 300 301 300 300 301 301
302 301 301 300 299 300 299 299 299 299 298 299 301 301 301 301 301 301 302 302 302 303 302 301 302 303 304 304 303 303 303 304 304 305 304 304 305 307 309 308 308 310 311 310 307 307 307 308 307 308 311 310 309 309 306 305 305 304 304 304 304 304 304 304 304 304 303 303 303 302 303 303 302 301 301 300 300 300 300 300 300 300 300 299 299 299 299
300 301 301 301 302 301 300 299 299 298 299 300 301 301 301 300 300 301 300 300 301 302 303 301 301 302 301 302 302 302 303 304 304 305 303 302 302 303 308 309 308 308 309 309 307 306 305 306 308 309 309 308 308 308 304 304 304 304 304 304 303 303 303 303 302 302 302 302 302 302 302 302 301 301 301 301 301 300 299 299 299 299 298 298 297 297 297
300 300 301 303 301 301 302 302 302 301 300 299 299 301 302 301 301 301 301 300 300 300 301 301 301 301 301 302 302 302 302 303 304 305 306 305 304 305 308 308 307 308 308 308 306 304 305 309 308 308 308 308 308 304 303 305 306 303 303 303 303 304 303 302 302 302 301 301 300 300 299 300 300 299 299 299 300 300 300 301 299 298 298 298 297 297 297
299 299 300 300 301 303 304 303 303 301 300 299 298 298 300 301 302 302 301 301 301 301 301 302 301 301 301 301 302 301 300 300 301 304 305 305 308 308 309 310 310 309 307 305 305 305 306 306 307 307 307 308 307 302 302 302 302 302 302 302 302 302 302 302 301 301 300 301 301 301 301 300 298 297 299 298 298 298 298 297 297 297 297 298 297 298 297
298 297 298 300 301 303 303 303 301 300 299 298 299 299 300 301 301 301 302 301 301 301 301 301 302 303 303 302 303 303 303 301 298 299 303 304 305 306 306 305 307 308 308 308 306 307 307 307 307 306 306 307 304 301 302 302 302 302 301 302 301 301 301 300 300 300 300 300 300 298 298 297 297 297 298 297 296 297 297 297 297 297 297 297 296 296 296
297 296 296 297 298 300 301 301 301 301 300 301 301 300 301 301 300 301 301 301 301 300 300 300 301 301 302 304 304 303 305 306 302 300 303 304 304 304 305 307 307 307 306 304 303 304 306 306 306 306 306 305 301 301 301 301 302 302 301 300 300 300 300 300 301 301 301 301 300 300 299 298 297 297 297 297 297 297 297 296 296 296 296 297 297 297 297
298 297 296 296 295 296 297 298 298 299 300 302 301 302 302 301 298 298 300 300 301 302 300 300 300 301 301 302 303 304 304 305 305 305 305 304 304 304 305 306 306 307 306 304 303 303 306 306 305 305 305 301 301 301 301 301 301 301 301 301 300 300 301 301 301 301 300 301 301 302 302 301 300 300 300 299 299 298 298 298 298 299 299 298 298 297 297
297 297 296 298 297 298 297 298 300 302 300 302 302 303 303 302 301 301 301 300 300 300 299 299 300 300 301 302 303 304 304 304 306 304 303 304 305 305 305 305 305 305 304 303 302 302 302 302 302 303 302 302 301 301 301 301 300 301 301 300 300 299 299 300 300 299 299 300 299 299 299 299 300 299 299 299 299 298 297 297 297 296 296 296 296 296 296
298 297 297 296 296 296 297 298 300 300 301 302 301 301 302 301 301 301 301 301 301 300 300 299 299 300 301 301 303 303 305 305 306 304 304 304 302 301 304 303 302 302 300 300 300 300 301 303 304 305 304 301 300 300 302 302 300 300 300 301 301 300 300 299 299 298 298 298 298 298 298 298 298 297 297 297 297 297 297 296 296 296 296 295 295 296 295
Wind_Speed
10 15 19 18 15 14 15 14 16 17 17 11 15 18 7 11 10 11 5 6 8 18 19 15 16 4 6 6 7 12 16 15 12 12 14 16 17 16 16 17 18 18 18 17 18 18 18 17 17 16 15 15 14 13 14 14 15 16 15 15 16 16 15 15 15 14 14 13 13 13 13 12 13 13 13 12 12 12 12 12 11 13 12 12 12 12 12
14 17 14 15 14 12 12 14 16 18 19 16 15 12 7 15 7 8 9 9 15 18 16 9 9 5 5 7 3 3 2 8 12 14 15 17 16 16 18 17 18 18 19 18 18 18 17 17 17 16 15 15 16 17 17 16 16 16 15 16 16 15 15 15 14 14 13 12 12 13 13 14 14 13 12 12 12 13 13 13 12 12 12 12 12 13 13
14 13 9 7 8 8 10 8 8 12 10 16 15 9 7 7 2 2 6 8 13 8 1 3 4 3 1 3 4 9 12 12 13 15 16 16 17 18 18 17 18 18 18 18 17 17 17 18 18 17 17 16 16 15 15 15 16 15 15 15 16 16 16 14 13 13 12 12 12 13 14 13 13 13 13 12 12 12 13 12 13 12 12 13 13 13 14
9 7 7 16 13 11 8 5 14 18 14 3 7 4 3 5 7 2 1 4 10 7 3 0 4 6 7 3 3 3 5 9 12 14 15 15 15 16 16 18 18 17 18 16 16 17 18 18 18 17 16 15 15 16 16 16 15 13 14 14 15 14 14 13 13 13 13 13 13 14 13 14 14 13 13 13 13 13 13 13 12 11 13 14 13 13 12
7 6 12 16 14 8 1 6 12 14 8 11 12 9 12 8 3 3 8 9 3 5 5 2 4 7 7 8 5 3 3 5 12 15 15 16 16 16 17 17 17 17 18 17 18 18 17 17 18 18 18 17 17 17 16 14 13 14 14 14 13 13 13 13 14 14 13 14 14 14 14 14 13 13 13 14 14 13 14 13 11 13 14 13 13 13 13
7 12 14 12 1 0 2 3 10 13 11 12 13 7 9 9 7 1 3 7 8 5 6 2 7 10 7 4 5 4 1 4 6 8 13 16 16 16 16 17 18 17 15 14 16 18 19 19 20 19 18 19 18 15 13 11 13 13 13 13 14 14 14 14 14 14 14 14 14 14 14 14 13 14 14 15 15 14 12 12 14 14 13 14 13 13 14
6 10 11 3 4 6 1 4 9 15 9 10 9 10 13 15 17 16 10 5 4 9 6 6 4 11 8 14 16 14 11 5 2 4 6 6 10 14 14 14 14 14 15 14 12 11 12 15 13 10 11 10 6 7 10 12 12 12 13 14 14 14 14 14 14 14 14 14 14 14 14 14 14 14 15 14 14 13 13 14 14 14 14 14 14 14 14
4 4 6 4 7 3 3 1 6 14 4 8 8 7 19 17 15 13 8 9 8 4 4 4 5 4 13 17 17 15 14 11 4 4 3 4 6 7 7 10 9 10 11 14 15 15 11 10 10 12 12 11 12 12 12 13 12 13 13 13 14 13 13 14 14 14 14 14 15 14 14 14 14 15 14 14 15 13 13 13 12 12 12 13 14 14 14
2 3 5 7 7 6 3 5 10 13 9 12 10 7 9 14 14 14 12 11 11 10 7 6 7 8 11 18 15 16 15 12 10 8 4 6 7 8 6 8 6 6 7 8 7 6 6 8 9 10 9 11 11 10 11 11 12 12 12 13 14 14 14 14 14 14 14 15 15 15 14 14 15 15 14 14 14 12 13 13 13 14 14 13 13 13 14
1 4 5 4 2 5 1 3 13 6 5 9 8 4 4 14 18 15 13 12 11 11 12 11 9 11 13 13 11 13 14 12 11 12 10 9 11 11 11 10 10 10 9 9 9 11 9 7 7 6 7 9 10 11 11 10 11 12 12 14 13 13 14 14 14 14 15 15 15 15 14 15 16 15 15 13 14 12 14 14 14 14 13 12 12 13 14
5 2 1 2 1 1 3 17 18 18 9 8 6 4 8 12 18 17 14 13 13 12 11 14 12 2 14 3 8 9 10 11 11 12 11 11 12 12 11 13 13 12 11 11 10 9 8 7 4 9 10 11 11 10 10 10 11 12 13 13 12 13 14 14 15 15 15 15 15 15 15 15 15 15 15 15 15 13 13 13 13 12 11 12 12 12 12
5 4 2 3 1 2 12 17 18 18 16 10 2 4 6 12 17 17 15 14 14 15 16 10 9 13 13 5 6 9 9 8 9 11 11 12 13 13 13 14 14 13 13 15 14 12 10 5 2 6 9 9 8 8 8 8 9 12 13 12 13 12 13 14 14 15 13 15 15 15 15 15 14 15 14 12 12 12 12 12 11 11 11 12 13 12 11
6 6 4 1 2 2 10 16 19 17 13 4 4 8 2 10 12 13 13 15 15 12 12 11 9 9 8 7 8 9 10 12 14 13 11 11 11 12 13 12 14 15 15 15 13 11 7 6 7 6 8 8 5 4 4 4 3 3 3 4 6 8 10 12 13 14 13 14 15 15 15 15 15 14 12 12 12 12 12 11 11 11 12 11 12 12 11
3 4 3 5 2 3 11 18 15 16 3 7 6 4 5 8 12 11 13 14 15 12 12 9 8 7 10 11 11 13 13 12 11 12 11 12 13 12 11 13 14 15 14 14 14 13 10 11 10 9 11 12 9 8 8 7 4 4 4 3 4 5 7 9 11 12 13 13 14 13 13 12 11 12 11 12 11 12 11 10 12 12 11 10 10 10 10
2 3 3 4 4 5 15 17 8 18 8 5 4 4 5 8 10 12 12 12 11 11 10 10 10 13 14 13 12 12 13 14 14 13 13 12 12 12 12 14 12 14 15 14 14 12 10 11 10 9 12 12 8 7 9 4 3 2 3 3 4 6 9 10 10 11 12 13 12 11 11 12 13 13 11 11 11 11 11 10 11 12 12 10 10 10 9
3 5 6 4 5 5 10 10 6 7 7 4 3 4 7 8 9 10 9 11 11 11 10 11 12 13 13 14 13 13 14 14 13 13 12 11 10 11 11 11 10 13 14 12 12 11 10 10 10 10 11 10 8 9 7 3 3 3 3 1 2 4 5 8 10 12 12 13 12 12 13 12 12 11 10 11 10 10 10 10 10 11 9 9 9 9 9
4 3 4 4 4 1 5 6 7 6 7 7 6 6 6 8 10 9 7 10 12 11 11 11 12 11 12 10 10 11 12 12 13 13 12 12 10 9 10 10 9 10 11 12 11 11 9 9 9 9 8 10 9 9 4 3 5 5 5 4 1 3 4 5 6 7 8 10 12 12 11 12 11 11 10 9 9 9 9 9 9 10 9 9 10 9 9
10 3 3 1 6 4 3 7 8 9 10 11 11 8 7 8 8 10 8 10 11 11 10 9 11 11 11 12 12 12 12 13 13 12 12 13 12 11 8 8 8 7 9 10 11 11 9 7 7 7 7 8 9 3 3 5 6 6 6 6 6 3 2 4 5 4 6 8 9 11 11 11 12 12 12 11 11 9 9 10 10 9 9 9 9 9 9
7 2 4 9 9 8 3 4 6 8 11 10 10 12 10 7 10 11 13 12 12 11 10 9 7 10 11 12 12 11 10 11 12 12 12 11 10 10 11 8 5 7 7 9 9 9 9 6 6 7 6 6 4 3 3 3 3 3 4 5 6 6 4 3 3 4 6 7 6 7 8 9 9 9 9 9 9 9 9 9 8 8 8 8 8 8 8
5 5 6 11 12 8 5 4 4 7 9 11 13 11 12 11 5 8 12 12 11 10 9 9 7 8 8 10 11 11 11 10 9 10 11 11 10 9 7 7 5 4 6 7 7 7 7 5 6 7 7 7 6 6 6 6 6 6 6 5 5 5 6 3 2 4 5 7 7 6 6 7 8 8 7 8 9 10 10 10 9 9 9 8 9 9 9
8 10 4 17 20 7 10 7 7 6 8 8 10 13 14 13 12 12 9 11 9 9 9 8 8 8 9 8 8 10 10 11 12 10 9 10 9 8 10 7 6 4 4 6 5 6 5 3 5 6 6 5 5 6 5 5 5 6 6 5 5 4 4 3 3 2 5 5 6 6 5 5 6 4 0 3 6 6 2 3 9 10 9 8 9 8 8
4 3 8 14 10 11 9 7 3 7 8 9 9 10 13 14 12 13 11 10 11 7 10 8 7 8 7 8 7 9 8 8 9 11 11 9 10 11 9 8 7 5 4 4 6 6 5 5 6 7 6 6 5 4 4 4 5 6 5 5 5 6 5 3 2 2 4 5 5 6 7 7 7 5 8 8 5 1 2 5 5 2 3 8 7 8 7
9 11 13 8 11 16 17 17 16 8 6 8 9 10 10 13 13 10 10 9 11 10 10 9 7 8 7 7 7 8 8 8 8 7 8 9 9 9 8 8 10 5 3 3 4 4 3 4 5 5 5 4 5 5 4 4 4 4 4 5 5 5 5 6 3 3 4 5 5 6 6 6 7 7 5 8 13 12 6 5 4 4 2 4 5 6 9
14 13 12 11 12 14 18 17 16 15 8 7 9 8 8 10 11 9 6 6 7 11 8 8 6 6 7 6 4 7 8 7 7 8 7 8 5 5 5 5 6 6 3 4 3 3 2 4 4 4 4 4 4 4 4 4 4 3 4 4 4 4 4 4 3 1 3 4 5 6 5 5 6 7 6 6 6 13 14 11 11 10 9 7 3 5 10
14 15 14 14 15 18 16 18 18 15 9 6 8 9 9 10 8 4 7 5 4 7 8 7 9 7 6 6 4 4 4 6 7 6 6 7 8 7 7 8 8 6 4 1 2 2 3 4 5 4 5 4 4 3 4 4 4 4 3 3 3 3 3 4 1 1 3 4 5 6 7 7 6 6 7 7 7 5 9 13 15 15 15 14 13 11 10
12 13 13 12 13 14 13 15 19 16 13 11 12 12 13 13 11 7 6 4 6 4 4 8 6 8 7 5 4 4 5 5 6 5 4 6 6 7 8 8 7 6 3 3 0 2 4 5 5 4 4 3 3 4 3 3 3 3 3 2 1 1 2 2 0 2 3 5 5 6 6 6 7 6 6 6 7 8 8 6 8 12 15 16 14 15 15
13 14 16 14 9 10 9 12 13 10 9 8 10 14 15 12 13 10 8 8 7 3 2 6 8 8 8 6 4 4 4 5 4 4 4 5 5 4 5 5 6 6 3 2 3 4 5 4 4 4 3 3 3 4 3 3 3 3 3 3 2 3 6 3 1 3 3 4 5 5 5 6 6 6 6 5 6 7 7 8 8 7 5 7 12 13 11
13 13 10 11 14 15 16 15 16 15 12 11 8 8 7 7 6 5 5 7 7 4 2 5 7 9 8 7 4 5 5 5 5 5 5 6 6 5 5 6 5 5 4 4 4 4 4 4 3 3 3 3 3 4 4 3 2 3 3 3 2 2 2 3 0 3 4 3 4 5 6 5 5 5 5 5 6 6 7 8 9 9 7 6 6 9 16
14 12 13 10 12 15 16 13 12 11 10 8 6 6 5 5 7 6 7 10 8 7 6 5 5 7 8 8 6 5 6 5 5 6 6 6 6 7 7 7 6 4 3 4 4 4 4 3 3 1 3 3 3 4 3 3 2 1 2 3 2 1 2 1 1 3 4 5 3 3 3 4 5 6 6 6 6 7 7 8 8 7 9 8 8 8 9
14 13 12 12 13 14 15 10 8 9 9 9 10 9 7 6 8 7 7 7 5 6 7 6 6 6 6 7 7 7 6 7 6 5 5 6 6 7 8 8 6 4 5 7 7 6 6 3 1 1 3 3 4 4 3 2 3 1 2 2 1 1 0 1 2 4 5 5 6 6 6 5 5 6 6 7 7 7 8 8 8 10 9 8 8 10 11
17 15 15 15 16 16 15 15 9 8 8 8 9 11 11 10 11 10 9 8 6 6 5 6 6 5 4 5 6 8 6 3 4 4 5 5 6 6 7 7 6 5 6 5 6 6 5 5 4 4 4 5 5 4 2 2 2 2 2 1 1 2 4 3 3 5 5 6 6 7 7 7 7 9 9 9 9 9 9 9 8 7 6 6 6 8 8
17 18 19 18 17 17 16 13 10 7 7 6 7 10 10 10 11 12 10 8 8 7 5 4 4 6 6 3 3 4 3 4 5 6 6 6 7 7 7 6 7 7 6 6 7 6 6 6 6 6 6 6 7 3 1 1 0 1 2 1 1 2 3 6 5 4 5 6 6 6 7 8 7 7 7 7 6 7 7 9 9 8 7 7 7 6 5
16 17 17 17 17 15 15 14 14 10 7 7 9 9 8 8 8 9 9 7 6 5 5 5 5 5 2 1 2 3 3 3 4 5 6 7 7 7 7 6 7 7 8 8 7 7 8 8 7 7 7 7 7 5 2 2 3 3 1 2 2 1 3 5 6 5 5 6 7 7 5 6 8 8 8 9 10 9 8 6 6 7 6 6 6 5 4
15 15 14 15 15 15 15 15 12 12 7 7 7 8 8 8 8 9 8 6 6 6 6 7 6 3 2 5 4 4 3 3 4 5 6 5 6 6 6 6 6 7 7 8 9 9 8 8 8 8 8 8 8 8 3 2 3 4 3 3 4 4 5 5 6 5 5 5 6 8 7 7 6 6 7 9 8 9 8 8 7 6 7 6 6 5 5
10 11 12 15 17 17 16 12 12 11 12 6 7 7 8 8 7 8 8 7 6 7 7 4 3 4 5 5 5 5 6 6 3 3 4 5 5 5 4 4 6 8 9 10 9 8 7 8 8 7 8 9 10 10 10 5 2 4 4 5 4 5 5 5 6 5 5 5 6 6 6 6 7 7 6 7 8 8 7 7 8 7 7 7 6 5 5
11 11 11 13 15 17 16 15 14 15 12 8 3 4 6 7 7 7 8 8 8 5 3 5 5 6 6 6 6 5 6 5 4 4 5 6 6 5 6 8 8 8 8 9 10 8 6 8 15 16 9 9 9 12 12 11 5 4 3 4 6 6 6 6 7 7 6 6 7 7 7 9 9 8 8 8 8 9 9 8 8 8 7 7 6 6 6
12 13 12 13 15 18 18 16 14 13 11 10 7 4 2 2 6 6 5 4 2 4 6 6 7 8 8 6 6 6 5 4 4 5 5 5 5 8 10 10 11 10 9 10 10 10 7 6 15 18 12 9 11 12 14 22 10 5 5 6 5 6 7 8 7 8 7 7 8 8 9 9 9 9 9 9 9 9 9 9 9 9 8 8 8 7 7
14 15 16 16 16 19 19 18 17 17 16 17 14 10 6 5 5 5 5 4 4 4 5 7 9 8 8 7 7 7 6 6 6 7 7 7 7 11 12 11 10 8 10 9 7 7 6 9 10 9 10 11 11 11 15 23 19 9 5 7 7 5 6 7 9 8 9 9 10 11 12 9 8 7 7 10 10 10 9 9 10 9 8 7 8 8 8
16 16 17 17 17 18 20 20 20 19 19 17 14 14 12 7 7 8 8 7 6 5 9 9 9 9 8 9 9 8 7 6 5 7 9 8 9 13 11 8 7 7 6 4 4 6 9 12 11 10 9 9 13 14 17 22 21 10 7 9 9 8 8 7 7 7 8 6 8 10 10 11 11 11 11 10 10 11 11 11 10 9 9 8 8 8 8
12 14 15 16 16 17 17 18 20 20 19 19 17 15 14 11 10 10 9 9 7 7 7 8 9 9 9 9 9 8 6 5 5 7 8 7 9 10 10 10 9 6 7 10 7 8 14 18 13 10 11 10 8 12 15 20 17 9 8 9 10 9 9 9 10 9 9 8 9 10 11 12 11 11 11 10 10 10 10 10 10 9 9 9 9 8 8
9 11 12 13 14 14 15 16 16 17 18 19 18 17 16 14 13 13 11 10 9 10 9 7 12 11 10 11 10 9 8 7 6 6 6 9 10 9 10 10 6 5 6 7 8 10 14 13 12 11 10 10 12 12 10 20 13 10 10 10 10 9 9 10 11 11 10 10 10 9 11 10 11 12 11 11 11 10 10 9 9 9 8 9 9 8 9
8 8 10 12 12 13 14 13 14 16 17 17 18 18 18 17 16 14 13 12 12 11 11 11 15 12 10 10 11 11 10 9 9 10 11 11 9 8 11 9 6 6 13 11 11 11 10 11 12 11 11 11 11 17 15 11 13 11 10 11 11 10 9 9 11 11 11 10 10 10 11 11 11 11 10 11 11 10 10 10 10 10 9 9 9 8 8
6 7 7 8 10 12 12 12 13 13 14 15 16 17 17 16 16 15 14 14 14 13 13 12 12 12 10 9 10 11 9 8 9 9 12 12 12 10 10 8 7 10 17 12 11 10 10 9 10 10 16 14 13 21 19 11 12 13 11 11 11 10 9 10 10 11 12 11 11 10 10 11 11 11 11 11 10 10 10 10 10 10 9 9 9 9 9
5 4 4 5 7 8 9 10 11 12 13 13 13 14 15 15 16 16 15 14 15 15 14 13 13 12 12 11 11 10 8 6 6 5 9 11 12 12 10 9 8 13 19 10 10 10 10 10 11 16 23 24 25 21 14 12 11 10 11 12 12 11 11 11 11 11 12 11 11 11 11 12 12 11 11 10 10 10 9 10 10 10 10 10 10 9 9
6 5 6 6 4 5 6 8 10 11 9 9 11 13 13 14 15 15 16 16 16 15 14 13 13 12 11 11 11 9 9 7 6 5 8 10 13 11 8 10 11 10 14 16 11 11 11 11 15 21 19 22 23 20 13 13 12 10 10 12 12 11 11 10 10 10 11 11 11 11 11 11 10 10 10 11 11 11 11 10 10 10 10 10 10 10 9
4 4 4 7 6 5 5 6 6 7 8 9 10 12 12 11 12 12 13 14 15 15 14 13 13 13 12 10 9 9 9 9 9 10 10 9 10 8 9 12 11 14 20 19 10 11 12 21 20 19 20 20 19 13 12 12 11 11 12 12 12 12 11 9 9 9 9 11 11 11 11 11 11 10 10 10 9 10 11 11 10 10 10 10 10 9 9
4 4 3 3 3 3 3 4 4 6 7 8 9 9 9 10 9 9 10 11 12 12 12 12 13 13 12 12 9 8 8 9 10 10 9 9 10 11 13 17 18 22 17 13 12 11 12 14 16 19 20 21 19 12 12 12 12 12 12 13 12 11 10 11 10 11 11 11 12 13 13 13 11 12 12 12 12 10 9 10 9 9 9 9 9 9 9
5 5 5 4 4 3 3 3 4 5 6 7 6 6 7 7 8 8 8 8 9 10 10 9 9 10 10 11 10 10 8 6 9 10 9 9 9 9 9 9 12 18 18 17 19 19 23 21 20 20 20 18 13 12 12 12 12 12 12 12 11 11 10 10 10 10 10 11 11 11 11 11 11 10 10 10 10 10 9 9 9 8 8 8 8 8 8
4 4 4 5 4 4 3 3 3 3 3 3 5 5 5 6 7 8 7 7 7 7 7 8 9 9 8 9 9 8 8 8 7 7 7 8 8 9 9 11 17 16 12 11 11 10 17 19 19 19 19 16 11 11 11 12 12 12 12 12 12 12 11 11 10 10 10 11 11 11 11 11 10 10 10 10 10 9 10 10 9 9 8 8 8 8 8
4 5 6 5 4 4 3 2 2 1 1 2 3 4 4 4 6 6 6 7 7 7 6 6 6 6 6 6 6 7 7 8 7 8 8 8 8 8 8 9 11 16 15 11 11 11 14 19 17 17 14 11 11 11 11 11 11 11 11 12 12 11 12 13 13 14 12 11 10 10 10 9 9 11 10 9 10 9 9 9 9 11 14 10 8 7 7
5 5 4 3 4 4 4 2 1 2 2 2 3 3 2 3 4 4 4 5 4 5 4 4 4 4 5 5 5 5 5 6 6 8 7 7 7 9 10 8 9 10 10 11 11 10 10 10 10 11 12 11 11 11 11 11 11 13 12 12 12 11 11 12 11 11 11 10 10 11 10 9 9 9 8 9 9 9 9 8 8 7 7 7 7 7 6
4 4 4 4 6 7 6 6 4 6 4 2 1 2 3 3 4 5 5 7 3 3 3 4 5 5 4 4 5 5 3 5 4 5 6 7 7 7 9 11 9 10 10 10 10 10 9 10 12 15 14 11 10 11 13 16 12 12 12 12 11 12 12 11 11 11 11 12 11 10 11 10 9 10 9 9 8 8 7 7 7 7 6 6 6 6 6
Wind_Direction
276 276 276 274 271 249 258 260 265 273 275 271 223 206 181 146 199 216 230 193 215 246 249 251 254 258 253 246 229 211 197 186 179 173 176 178 184 181 176 178 177 179 180 182 184 184 186 185 184 186 187 189 189 190 189 188 187 189 185 186 189 191 193 196 198 197 196 196 197 197 198 199 204 206 207 208 208 209 209 211 212 214 213 214 216 221 225
289 274 255 255 245 261 255 255 254 256 258 256 243 212 161 181 205 200 199 193 219 235 249 260 277 282 235 248 189 299 222 176 173 175 176 180 182 179 178 179 181 181 181 182 183 183 182 183 184 184 187 190 191 191 190 188 188 187 181 187 188 191 194 197 197 195 194 194 195 195 196 200 203 204 206 206 208 210 212 212 213 213 214 215 216 219 223
293 282 272 265 283 291 292 284 306 289 264 236 234 204 179 177 241 266 219 205 235 256 246 264 288 326 281 261 164 195 198 178 176 177 179 180 182 180 180 180 181 182 183 184 182 180 181 183 182 185 189 192 192 193 192 190 190 186 182 186 189 191 196 195 192 191 191 195 193 196 199 201 201 201 204 205 209 211 213 213 214 213 213 216 218 219 221
294 302 337 325 330 301 259 295 349 346 337 248 199 163 317 163 188 217 110 219 253 276 280 258 357 32 37 351 326 253 227 189 176 176 179 180 181 179 180 182 181 182 183 180 179 182 183 183 184 186 189 190 189 196 193 192 188 181 184 187 189 191 193 190 190 190 193 192 194 198 198 202 201 201 201 204 207 210 211 212 213 213 216 217 218 220 223
259 285 326 317 308 312 9 358 359 327 356 92 86 60 38 24 245 160 188 235 223 271 298 63 33 61 47 39 355 337 306 243 183 180 180 180 179 181 182 181 183 182 181 181 182 184 182 183 186 190 188 186 193 195 192 189 179 182 185 185 184 189 191 191 191 191 192 192 196 198 199 201 201 199 201 204 207 208 211 211 211 214 217 216 219 220 222
281 310 310 302 3 71 249 196 30 351 18 31 65 38 22 8 34 217 225 256 281 305 350 344 105 70 61 65 46 27 9 230 232 196 185 180 181 183 182 181 181 181 183 183 183 183 182 185 189 190 187 190 195 191 185 176 182 182 180 183 185 190 192 192 192 192 192 193 196 199 198 199 199 200 202 206 206 207 208 207 212 217 215 217 219 220 221
289 305 310 140 125 208 174 128 47 359 344 32 72 63 37 21 15 9 354 335 25 26 23 331 84 107 92 63 41 28 11 34 122 181 189 193 184 184 183 182 182 179 179 176 174 178 187 189 187 179 187 189 160 163 175 183 183 180 182 184 188 191 193 193 192 193 192 194 198 199 199 198 199 202 204 207 206 206 206 209 212 214 214 216 218 219 221
304 315 327 166 186 267 346 107 13 1 18 27 340 25 20 20 15 1 346 341 358 11 4 335 322 54 86 60 41 23 17 20 37 72 74 126 141 166 177 172 166 162 166 170 175 182 176 166 172 181 180 168 170 180 181 182 181 183 182 186 190 192 193 193 193 193 192 194 198 199 199 198 199 203 205 206 206 205 207 212 215 215 217 217 218 218 219
198 295 295 251 325 323 341 6 358 355 342 329 352 17 10 8 6 3 349 350 359 357 322 323 273 298 41 53 33 8 14 14 23 53 56 92 106 103 95 113 116 113 111 109 108 107 133 165 172 178 164 167 173 172 178 181 181 183 184 189 192 192 194 193 194 194 194 195 198 200 198 198 201 203 204 207 209 204 207 211 213 214 217 216 218 218 218
101 4 325 335 52 216 323 318 300 301 257 285 283 271 350 3 2 360 356 5 352 6 355 336 317 286 57 34 25 356 9 10 21 41 49 66 82 93 98 94 101 105 107 109 115 122 126 135 151 145 153 167 169 176 182 176 177 185 188 194 192 191 194 194 196 196 196 196 199 200 198 199 202 205 205 206 208 202 205 208 212 215 215 219 218 218 217
343 333 259 258 211 259 23 326 311 315 315 276 302 204 47 1 352 355 352 6 8 10 3 352 341 112 71 352 27 353 1 14 20 40 42 53 68 76 85 99 100 97 98 102 101 97 103 110 163 162 161 164 167 178 180 179 182 189 197 196 192 192 193 195 199 198 196 198 200 200 199 202 203 204 204 205 207 202 206 209 214 212 213 218 221 221 220
223 242 287 279 242 261 326 317 321 316 312 325 224 92 40 347 335 353 357 9 11 16 13 351 13 57 99 64 17 358 358 11 24 39 41 49 63 74 81 79 88 92 95 88 76 77 72 56 58 149 147 151 162 168 177 177 185 199 203 200 199 195 193 195 198 199 198 198 201 200 202 205 204 206 205 205 206 203 206 208 211 211 212 215 219 222 218
230 226 248 304 18 291 317 324 319 311 304 276 83 84 54 328 323 348 3 13 10 13 22 9 34 33 53 55 41 20 14 24 28 32 39 49 57 66 73 84 86 81 77 80 81 76 69 60 62 79 105 102 102 128 144 152 213 245 269 240 209 205 196 195 197 200 200 199 201 203 203 204 204 205 202 204 204 202 205 206 209 212 213 214 219 222 219
232 209 175 200 182 237 325 331 322 325 4 50 63 56 352 328 333 339 6 17 13 11 25 20 24 24 40 44 40 31 24 30 26 27 33 46 53 58 65 72 78 86 81 80 79 70 64 63 64 70 81 82 78 73 69 46 351 305 302 271 217 186 194 196 198 200 201 203 203 205 205 201 201 207 206 204 204 203 203 204 207 212 213 215 217 221 220
324 348 11 37 358 339 356 327 338 9 52 47 13 319 355 343 349 348 5 10 4 5 15 4 14 22 27 30 28 29 25 26 26 21 23 33 45 47 53 58 62 78 79 74 72 73 64 63 63 67 74 76 74 67 55 20 317 299 288 274 229 208 193 192 197 199 200 199 200 203 207 203 199 203 201 201 203 200 200 203 206 210 214 212 215 219 221
334 19 33 38 322 338 345 8 34 37 45 345 10 23 4 356 355 359 360 358 0 360 6 9 13 19 18 21 19 23 24 21 20 23 22 23 34 50 51 58 61 70 78 77 75 68 64 61 61 60 69 70 62 55 36 340 348 349 9 355 206 209 214 211 200 198 197 197 198 200 203 203 203 203 198 200 200 199 198 200 202 209 213 211 212 217 220
21 310 35 349 333 254 8 360 35 45 40 8 18 48 40 9 353 338 355 348 344 359 0 13 18 17 12 12 16 26 18 18 19 19 17 18 18 27 47 46 47 59 71 76 72 67 62 66 62 62 61 67 56 45 4 7 10 8 350 355 80 181 217 227 222 216 203 196 195 196 198 196 199 203 203 193 198 200 194 200 202 206 210 205 210 213 216
306 236 157 178 31 347 59 28 24 33 19 13 3 15 37 28 357 342 337 337 337 345 357 9 13 15 356 4 8 20 18 18 13 14 16 17 18 19 23 35 39 51 62 67 71 71 61 62 72 71 67 67 64 31 355 13 10 3 1 359 358 342 224 212 220 216 210 210 202 196 192 192 197 198 198 195 198 196 194 200 201 203 205 203 209 210 213
341 206 14 28 359 336 70 50 30 32 37 8 1 352 4 17 14 348 331 334 335 341 346 11 7 8 358 359 2 6 19 20 14 9 10 10 14 17 16 5 23 45 52 61 64 67 62 48 62 66 70 69 79 78 60 40 31 14 18 9 348 343 323 267 226 201 208 208 204 201 194 193 196 196 195 195 199 196 195 197 198 202 200 200 205 206 211
289 314 341 349 339 297 157 102 32 34 43 15 352 349 344 326 360 359 326 321 330 336 345 354 359 5 3 4 357 360 360 3 9 8 1 1 2 5 13 9 13 46 68 74 76 71 64 50 53 56 52 44 35 31 27 22 17 21 21 16 355 329 316 301 222 208 210 203 188 189 193 190 191 192 192 195 197 195 192 192 191 198 195 198 201 199 206
287 272 327 357 336 8 145 132 98 62 47 34 348 345 335 329 326 330 326 320 323 327 334 333 353 2 4 3 353 358 353 351 355 359 358 351 352 352 2 1 10 16 56 73 75 78 72 74 72 69 63 54 41 35 27 25 20 25 14 2 357 336 319 298 266 204 192 189 180 165 117 54 38 26 275 228 204 196 190 188 193 194 198 200 200 201 195
316 15 349 354 336 310 287 252 120 4 358 8 349 336 325 322 328 325 324 318 331 326 323 337 337 1 350 356 355 357 350 342 336 344 350 352 350 350 349 355 10 13 22 58 56 51 38 43 57 57 50 39 28 25 20 23 28 32 12 5 4 349 341 314 235 175 174 169 152 142 141 132 114 79 61 75 33 18 145 355 15 357 171 195 196 186 189
300 312 312 295 280 276 266 279 294 300 319 318 315 313 311 308 312 306 322 323 334 335 326 326 344 343 350 338 350 356 348 335 324 323 343 345 347 343 341 356 1 3 18 61 70 58 41 57 66 67 60 43 26 6 6 9 27 33 30 20 2 357 354 344 296 184 155 140 133 134 140 143 139 134 124 48 45 45 35 25 25 48 159 258 286 204 171
289 291 296 294 283 277 288 290 287 289 276 272 273 268 270 286 291 296 317 321 320 315 321 328 342 336 333 336 344 349 334 325 328 320 334 334 330 326 336 355 359 357 359 58 71 89 84 81 78 73 64 39 21 355 355 2 17 30 44 41 7 345 349 326 319 219 143 139 135 134 131 139 144 146 128 112 58 36 39 44 49 50 47 49 58 186 172
298 300 294 286 274 271 273 279 282 277 266 225 243 234 226 248 257 236 269 276 267 300 312 330 327 332 321 319 324 325 318 308 310 313 327 328 333 339 338 348 353 346 311 255 171 150 115 93 80 70 58 12 358 354 354 355 15 17 15 34 17 346 360 336 336 129 125 137 145 147 152 154 158 157 147 146 125 92 37 55 66 59 49 46 55 68 83
284 285 282 277 268 270 271 275 271 264 258 230 229 238 233 221 212 227 233 253 268 259 305 312 312 304 293 291 308 300 319 324 309 311 323 324 324 334 341 332 322 311 293 264 208 105 87 80 79 66 52 5 340 334 338 350 6 17 333 350 25 308 343 19 86 155 151 157 158 168 169 169 166 165 162 149 142 131 121 113 68 57 53 48 54 71 66
313 314 315 310 288 279 272 259 273 276 259 244 221 228 222 210 201 184 193 218 228 211 250 294 284 268 277 283 296 309 321 312 323 315 306 305 313 312 297 298 308 312 319 11 10 23 46 49 44 45 25 336 320 318 329 340 355 355 348 0 20 7 1 41 168 168 159 170 168 164 164 164 164 157 144 138 137 139 143 129 110 94 88 53 38 54 84
319 322 323 316 310 306 299 285 272 268 265 261 251 232 199 203 224 188 184 202 216 189 203 245 266 288 288 288 309 315 325 326 313 301 303 308 306 302 303 308 315 320 329 20 33 31 42 47 35 14 330 310 316 313 319 340 11 357 353 356 6 28 24 355 349 150 145 165 179 178 171 159 136 116 120 127 124 118 107 104 113 116 96 69 81 67 78
331 323 323 310 307 307 305 293 280 269 264 261 251 234 236 242 243 225 204 212 187 183 185 222 239 266 281 294 308 316 316 310 309 307 310 311 318 322 320 320 321 328 359 24 27 25 34 36 39 15 291 300 312 310 318 335 346 33 9 343 346 41 20 355 76 119 121 126 130 118 98 109 117 118 112 103 106 108 106 112 108 106 111 130 115 91 77
335 333 330 332 326 323 325 308 266 266 259 259 262 262 249 245 261 253 246 235 198 189 207 197 207 245 278 300 307 309 309 303 298 305 318 326 332 340 336 325 319 342 23 25 16 10 10 1 15 298 279 313 313 296 300 343 319 346 355 335 359 343 254 137 121 119 122 118 113 106 103 102 96 102 108 111 114 113 114 112 122 127 131 139 134 132 133
337 338 345 347 346 345 337 328 291 250 246 249 247 255 256 252 252 255 243 243 233 223 210 199 217 236 227 246 284 302 309 320 333 341 345 349 354 357 358 1 26 31 26 15 6 13 19 14 358 331 317 314 294 282 277 296 314 343 46 29 3 72 102 112 129 133 129 124 122 123 120 119 126 128 132 137 134 130 125 125 121 111 106 100 101 112 117
346 348 352 353 348 342 337 334 318 261 240 234 242 247 245 234 232 232 234 225 224 216 221 222 211 219 236 236 283 313 348 6 15 13 5 3 5 5 13 22 38 39 26 16 16 17 18 16 2 335 326 317 297 278 227 189 110 95 109 111 97 89 91 104 103 105 118 120 120 121 133 133 126 116 107 92 84 95 109 116 119 118 115 113 110 102 111
346 349 359 354 349 344 342 337 334 311 246 233 229 239 243 243 243 242 237 225 214 217 217 227 232 233 229 178 111 73 61 38 34 31 18 10 4 7 9 25 40 42 33 18 11 18 20 12 346 331 333 329 319 286 179 140 119 117 111 116 101 86 102 111 113 113 111 117 116 117 121 125 129 127 121 118 117 115 106 96 95 101 100 106 109 106 111
359 356 345 343 343 342 337 334 334 334 301 230 233 231 242 241 242 246 248 235 220 214 210 217 216 216 144 108 100 104 85 65 35 22 12 5 6 10 8 27 47 52 45 32 27 21 13 3 353 344 345 343 347 329 317 99 114 109 111 100 98 99 104 103 109 111 120 116 124 127 125 120 99 92 110 118 120 121 118 118 113 114 117 104 79 46 32
355 349 351 355 355 351 348 342 338 335 326 285 228 231 233 235 235 238 238 236 231 225 219 201 161 137 105 95 84 78 77 79 65 38 20 11 7 6 357 28 45 47 44 35 26 21 13 6 3 7 8 9 4 7 343 339 78 109 101 98 85 92 87 93 89 96 103 120 120 122 120 116 115 114 110 104 106 104 107 106 109 113 104 95 89 87 68
359 358 1 4 3 360 356 353 347 347 342 327 290 242 228 230 234 235 230 225 223 223 168 125 119 100 93 92 87 79 83 79 71 59 47 34 25 16 37 43 36 37 33 29 12 354 358 28 31 35 32 18 18 9 1 344 335 53 86 86 105 91 85 87 88 88 83 93 92 92 97 99 96 95 97 98 96 97 97 93 93 92 92 93 97 96 93
2 3 3 7 8 7 6 3 358 356 346 343 353 9 347 258 236 245 247 246 187 149 134 122 104 100 94 89 90 86 75 66 73 67 61 48 51 59 51 47 38 35 31 32 359 345 331 35 60 44 40 26 20 15 9 1 340 343 59 60 72 91 102 95 88 92 88 84 90 92 91 90 88 88 91 87 84 84 88 92 90 86 85 85 85 82 77
2 5 6 9 9 11 9 6 5 8 5 7 8 2 16 47 48 66 57 65 87 97 99 99 102 102 98 89 78 71 69 66 71 78 75 65 63 70 56 49 40 34 39 28 346 343 353 1 31 69 65 48 33 20 16 13 353 341 34 55 59 52 74 98 103 102 98 97 95 94 93 81 82 66 72 81 78 81 83 82 81 82 78 76 79 77 76
6 6 8 7 10 12 9 9 10 11 11 8 7 12 5 24 61 68 72 66 67 86 96 98 96 89 86 92 84 72 62 58 66 77 78 72 67 70 64 52 44 42 40 4 356 17 25 36 38 35 37 66 64 44 25 22 1 340 33 59 51 63 58 55 53 74 84 92 99 99 96 93 93 88 86 85 87 85 79 77 77 74 75 73 71 70 65
7 9 7 6 12 10 12 12 11 12 13 16 16 10 5 17 38 50 61 63 61 73 84 95 89 91 91 84 82 75 60 57 62 72 78 77 72 74 72 51 34 26 44 41 36 38 45 43 42 41 39 24 29 79 66 31 10 346 1 56 64 64 58 67 69 66 55 51 69 79 88 87 87 84 85 83 81 78 77 75 68 68 75 73 68 67 67
8 10 10 11 11 13 14 14 12 11 17 17 18 18 18 19 33 42 42 55 60 62 55 74 93 86 83 86 83 76 69 64 64 73 85 85 74 69 68 57 16 20 42 55 54 52 52 52 47 45 35 40 42 31 49 85 65 12 10 30 45 57 67 73 76 70 69 64 65 65 71 69 77 79 76 78 75 73 73 71 71 70 68 72 71 68 67
12 11 15 15 14 14 15 14 14 18 18 17 17 18 19 24 33 35 33 36 46 54 62 63 79 86 86 83 86 82 72 64 67 71 68 69 69 75 72 56 17 39 52 50 49 53 48 47 50 52 50 50 46 49 49 59 72 70 46 32 26 32 47 61 68 72 73 71 65 63 70 75 72 74 72 73 71 71 70 72 71 68 66 64 62 57 59
10 18 15 20 20 18 16 17 18 17 17 20 21 20 19 22 27 28 33 38 42 43 48 41 49 57 65 69 76 75 73 67 65 69 77 72 67 61 70 68 43 45 50 53 52 50 49 50 56 59 64 62 61 59 50 42 59 67 63 58 48 35 28 42 56 68 72 65 61 59 64 69 71 73 73 71 70 68 68 68 70 66 63 59 58 59 55
354 17 19 18 26 29 25 21 20 19 20 18 19 24 24 27 27 27 27 33 40 40 43 44 44 45 47 52 58 58 53 47 54 52 75 79 70 57 51 61 54 54 53 52 53 55 53 54 57 65 67 69 68 62 58 58 49 54 64 66 61 53 43 37 42 47 60 66 67 62 59 63 66 65 65 65 68 68 65 65 66 65 64 61 58 55 55
351 5 26 23 7 20 30 27 25 24 15 12 22 29 29 27 28 28 28 28 35 35 34 38 39 38 38 43 48 49 50 44 39 42 66 70 74 63 43 58 60 59 56 56 55 56 55 54 60 63 66 69 70 69 68 64 61 56 58 68 67 62 58 52 47 49 56 62 64 66 66 64 64 64 68 70 68 68 68 66 63 63 65 63 59 58 53
345 354 21 35 14 15 35 44 38 30 24 22 28 31 31 31 34 34 32 30 30 29 30 31 36 33 28 32 34 39 45 47 44 43 48 55 66 72 66 66 65 63 60 58 54 55 56 57 57 60 62 62 63 67 71 72 69 67 63 64 65 64 60 57 56 57 59 61 64 64 65 68 69 68 68 70 70 69 67 67 67 62 63 65 64 63 60
348 348 7 30 5 22 36 54 58 51 39 34 35 34 26 26 28 36 40 38 36 33 29 26 28 32 30 29 24 24 29 38 41 35 38 40 50 54 53 57 60 65 63 59 55 54 56 55 52 54 59 62 63 63 63 66 68 67 65 65 64 65 66 62 60 58 57 60 64 67 68 67 66 65 64 64 61 59 58 60 62 61 61 63 62 61 60
15 15 6 7 21 24 20 27 51 60 56 54 47 39 33 30 33 35 37 37 38 37 35 31 29 27 29 26 22 24 22 21 53 43 22 38 40 47 52 56 57 58 59 59 60 57 53 51 51 51 56 61 62 62 62 62 63 63 62 62 62 62 61 63 61 61 62 61 62 66 66 66 67 69 71 72 70 67 66 66 67 66 63 62 63 61 61
25 23 19 23 16 16 23 29 50 69 81 90 82 65 49 41 35 30 31 34 42 45 41 27 23 25 26 30 28 14 20 28 41 53 34 39 43 46 45 50 54 54 55 57 56 58 57 55 54 54 56 57 58 61 64 64 64 65 65 64 63 59 55 54 52 52 55 59 60 63 63 65 66 67 68 68 68 67 70 69 66 64 64 64 62 60 58
12 27 34 25 12 13 10 33 43 22 40 90 104 101 97 74 58 43 31 29 33 42 34 35 30 24 18 18 12 15 9 20 25 36 41 48 55 55 53 52 53 55 55 55 55 51 47 49 53 58 58 58 59 60 61 64 64 65 67 67 67 67 63 64 64 61 60 60 59 58 59 61 64 67 69 69 70 69 68 67 66 65 64 63 61 58 56
18 16 0 23 40 23 14 1 4 70 24 42 81 96 85 82 97 93 83 63 32 37 27 31 28 21 16 14 15 22 20 8 26 51 50 48 51 64 65 58 58 58 53 51 50 51 50 50 50 49 54 58 62 63 64 66 65 64 64 64 62 63 62 60 61 60 59 58 59 58 57 55 54 56 59 62 66 65 65 64 64 61 58 58 59 56 51
29 16 353 358 47 41 25 11 26 65 58 71 47 58 81 79 73 65 66 63 36 23 12 5 32 24 29 20 22 13 7 39 26 27 49 58 60 53 57 60 59 59 61 60 58 55 55 58 61 60 58 57 59 63 64 64 64 66 65 64 64 63 62 63 61 61 58 56 57 58 57 57 58 57 56 56 58 59 58 59 59 58 56 58 56 55 52